Regional Weather Roundup
Issued by NWS

Home | Current Version | Previous Version | Text Only | Print | Product List | Glossary On
Versions: 1 2 3 4 5 6 7 8 9 10 11 12 13 14 15 16 17 18 19 20 21 22 23 24 25 26 27 28 29 30 31 32 33 34 35 36 37 38 39 40 41 42 43 44 45 46 47 48 49 50
000
ASUS43 KLSX 280559
RWRMO

WEATHER SUMMARY FOR MISSOURI
NATIONAL WEATHER SERVICE SPRINGFIELD MO
100 AM CDT THU AUG 28 2014

NOTE: "FAIR" INDICATES FEW OR NO CLOUDS BELOW 12,000 FEET WITH NO
       SIGNIFICANT WEATHER AND/OR OBSTRUCTIONS TO VISIBILITY.
       CURRENT SKY AND/OR WEATHER CONDITIONS ARE NOT AVAILABLE FOR
       CHILLICOTHE AND FARMINGTON.

MOZ001>031-035>038-043-044-053-054-280700-
...NORTHERN AND WESTERN MISSOURI...

CITY           SKY/WX    TMP DP  RH WIND       PRES   REMARKS
KANSAS CTY INT MOCLDY    76  71  85 E9        30.02F
6HR MIN TEMP:  76; 6HR MAX TEMP:  82;

KANSAS C DTWN  FAIR      79  73  82 E9        30.01F
6HR MIN TEMP:  79; 6HR MAX TEMP:  84;

LEE`S SUMMIT   FAIR      76  72  87 E6        30.04F
6HR MIN TEMP:  76; 6HR MAX TEMP:  82;

ST JOSEPH      FAIR      74  70  87 E6        30.02F
6HR MIN TEMP:  74; 6HR MAX TEMP:  79;

KIRKSVILLE     MOCLDY    72  70  94 NE6       30.08F

$$
MOZ066>068-077>081-088>096-101>105-280700-
...SOUTHWEST MISSOURI...

CITY           SKY/WX    TMP DP  RH WIND       PRES   REMARKS
SPRINGFIELD    FAIR      75  68  78 S7        30.05S
6HR MIN TEMP:  75; 6HR MAX TEMP:  85;

JOPLIN         FAIR      77  69  76 S7        30.02F
6HR MIN TEMP:  76; 6HR MAX TEMP:  85;


$$
MOZ032>034-039>042-045>050-055>058-069>072-280700-
...CENTRAL MISSOURI...

CITY           SKY/WX    TMP DP  RH WIND       PRES   REMARKS
COLUMBIA       FAIR      71  68  90 SE6       30.05F
6HR MIN TEMP:  71; 6HR MAX TEMP:  79;

JEFFERSON CITY FAIR      71  68  90 SE3       30.04F
6HR MIN TEMP:  71; 6HR MAX TEMP:  81;

ROLLA          FAIR      72  66  81 SE8       30.05F
6HR MIN TEMP:  71; 6HR MAX TEMP:  76;

SEDALIA        FAIR      74  68  81 SE5       30.04F
6HR MIN TEMP:  74; 6HR MAX TEMP:  84;

OSAGE BEACH    FAIR      72  66  83 SE3       30.04F

$$
MOZ051-052-059>065-280700-
...EAST CENTRAL MISSOURI...

CITY           SKY/WX    TMP DP  RH WIND       PRES   REMARKS
ST LOUIS INTL  FAIR      75  69  81 CALM      30.06S
6HR MIN TEMP:  75; 6HR MAX TEMP:  79; 6HR PCP:  0.05;

SPIRIT OF STL  FAIR      71  69  93 CALM      30.04F
6HR MIN TEMP:  71; 6HR MAX TEMP:  73; 6HR PCP:  0.13;

ST CHARLES     FAIR      72  70  93 CALM      30.05S
6HR MIN TEMP:  71; 6HR MAX TEMP:  78; 6HR PCP:  0.23;


$$
MOZ072>076-082>087-097>100-106>115-280700-
...SOUTH CENTRAL AND SOUTHEAST MISSOURI...

CITY           SKY/WX    TMP DP  RH WIND       PRES   REMARKS
CAPE GIRARDEAU FAIR      75  71  87 CALM      30.04S
6HR MIN TEMP:  75; 6HR MAX TEMP:  86;

FARMINGTON     FAIR      72  70  94 CALM      30.09F
6HR MIN TEMP:  70; 6HR MAX TEMP:  79;

POPLAR BLUFF   MOCLDY    77  71  82 N3        30.03S
6HR MIN TEMP:  76; 6HR MAX TEMP:  88;

WEST PLAINS    FAIR      71  67  87 CALM      30.09S
6HR MIN TEMP:  71; 6HR MAX TEMP:  83;


$$



USA.gov is the U.S. government's official web portal to all federal, state and local government web resources and services.